ARIANE 44LP DEB, 25538

Orbit data source: Space-Track

ARIANE 44LP DEB, 25538 is space debris in HEO originally from a launch on Sun, 11 Dec 1988 UTC launched from the French Guiana (FRGUI). Debris objects in space refer to the collection of defunct objects orbiting the Earth. Examples of debris include non-operational satellites, rocket bodies, and fragments generated from explosions, collisions, or faulty payload assembly.

Loading next visibility...
Identifier
25538, 1988-109E
Orbit
HEO
Country
Flag of FRFR
Related business
Manufacturer
Unknown
Mission
Spacecraft
Bus & Motor
Unknown
Mass
Unknown
Launch date (UTC)
1988-12-11 (37 years ago)
Launch vehicle
Unknown
Launch site
French Guiana (FRGUI)
Object type
Payload
Rocket body
Debris
Shape & HBR
Unknown shape, 1.1 m
Radar Cross Section
Medium (>0.1 m² and <1 m²)

Expand to show TLE details & history
Last TLE update: 12 hours ago

TLE from 12 hours ago
0 ARIANE 44LP DEB
1 25538U 88109E   26125.58473692  .00000089  00000-0  18850-2 0  9990
2 25538   6.4633 137.0231 7199087 257.6503 159.2799  2.24171953225165
Epoch: 2026-05-05T14:02Z
TLE epoch observation values (Epoch: 2026-05-05T14:02:01.269Z)
Latitude
6.16866°
Longitude
135.74429°
Altitude
35,656.417 km
Speed
1.674 km/s
True Right ascension
13h 58m 49s
True Declination
6° 09' 45"
Sunlit
Object was in daylight at epoch
Visualization orbit readout
Latitude
Unknown
Longitude
Unknown
Altitude
Unknown
Speed
Unknown
Apparent Right ascension
Unknown
Apparent Declination
Unknown
Sunlit
N/A
Visualization observer readout
Local Sidereal Time
09:47:15
Azimuth
Unknown
Elevation
Unknown
Doppler factor
Unknown
Orbital elements
Apogee altitude
36,045.926 km
Perigee altitude
530.725 km
Semi-major axis
24,666.462 km
Eccentricity
0.71991
Inclination
6.4633°
RAAN
137.0231°
Arg. of periapsis
257.6503°
True anomaly
175.10806°
Mean anomaly
159.2799°
Eccentric anomaly
167.91537°
Mean motion
0.56025 °/min
Orbital period
642.57 mins
BSTAR
0.001885
Loading maneuver chart data...
Computing Atmospheric mass density...
Loading historical data...
Loading historical data...
Loading historical data...
Loading historical data...
Loading historical data...
Loading historical data...
Loading historical data...

Documentation

Showing up to 5 results
|